timestamp,wind_dir_avg,wind_spd_avg,wind_spd_max_dir,wind_spd_gust,battery_voltage,lat,long
2024-01-10 00:04:00+00:00,307.0,10.98,303.0,14.02,12.25,47.59359,-54.27349
2024-01-10 00:14:00+00:00,313.0,10.05,320.0,12.44,12.25,47.59359,-54.27349
2024-01-10 00:24:00+00:00,315.0,13.25,322.0,16.01,12.25,47.59359,-54.27349
2024-01-10 00:34:00+00:00,322.0,11.94,314.0,15.16,12.25,47.59359,-54.27349
2024-01-10 00:44:00+00:00,310.0,11.23,307.0,12.86,12.25,47.59359,-54.27349
2024-01-10 00:54:00+00:00,313.0,10.49,314.0,13.15,12.25,47.59359,-54.27349
2024-01-10 01:04:00+00:00,319.0,10.4,316.0,13.52,12.25,47.59359,-54.27349
2024-01-10 01:14:00+00:00,321.0,11.05,315.0,12.77,12.25,47.59359,-54.27349
2024-01-10 01:24:00+00:00,312.0,11.59,300.0,15.18,12.25,47.59359,-54.27349
2024-01-10 01:34:00+00:00,318.0,14.16,324.0,17.77,12.25,47.59359,-54.27349
2024-01-10 01:44:00+00:00,315.0,14.35,307.0,16.81,12.25,47.59359,-54.27349
2024-01-10 01:54:00+00:00,316.0,14.06,325.0,18.72,12.25,47.59359,-54.27349
2024-01-10 02:04:00+00:00,314.0,10.98,316.0,14.42,12.25,47.59359,-54.27349
2024-01-10 02:14:00+00:00,309.0,13.65,309.0,16.21,12.17,47.59359,-54.27349
2024-01-10 02:24:00+00:00,310.0,11.56,297.0,15.0,12.17,47.59359,-54.27349
2024-01-10 02:34:00+00:00,310.0,10.56,311.0,12.25,12.17,47.59359,-54.27349
2024-01-10 02:44:00+00:00,311.0,12.35,304.0,15.26,12.17,47.59359,-54.27349
2024-01-10 02:54:00+00:00,305.0,13.54,299.0,15.97,12.17,47.59359,-54.27349
2024-01-10 03:04:00+00:00,300.0,12.61,298.0,15.34,12.17,47.59359,-54.27349
2024-01-10 03:14:00+00:00,308.0,12.0,303.0,13.95,12.17,47.59359,-54.27349
2024-01-10 03:24:00+00:00,316.0,12.26,322.0,14.55,12.17,47.59359,-54.27349
2024-01-10 03:34:00+00:00,314.0,12.25,314.0,15.7,12.17,47.59359,-54.27349
2024-01-10 03:44:00+00:00,311.0,12.56,303.0,16.65,12.17,47.59359,-54.27349
2024-01-10 03:54:00+00:00,313.0,10.15,316.0,12.08,12.17,47.59359,-54.27349
2024-01-10 04:04:00+00:00,302.0,10.76,297.0,12.59,12.17,47.59359,-54.27349
2024-01-10 04:14:00+00:00,307.0,9.73,309.0,12.63,12.17,47.59359,-54.27349
2024-01-10 04:24:00+00:00,304.0,9.74,307.0,11.26,12.17,47.59359,-54.27349
2024-01-10 04:34:00+00:00,309.0,8.82,305.0,11.25,12.17,47.59359,-54.27349
2024-01-10 04:44:00+00:00,302.0,8.48,301.0,10.62,12.17,47.59359,-54.27349
2024-01-10 04:54:00+00:00,308.0,10.27,299.0,12.16,12.17,47.59359,-54.27349
2024-01-10 05:04:00+00:00,317.0,9.01,321.0,10.88,12.17,47.59359,-54.27349
2024-01-10 05:14:00+00:00,312.0,10.34,315.0,11.91,12.17,47.59359,-54.27349
2024-01-10 05:24:00+00:00,304.0,9.91,299.0,12.76,12.17,47.59359,-54.27349
2024-01-10 05:34:00+00:00,304.0,9.42,306.0,11.1,12.17,47.59359,-54.27349
2024-01-10 05:44:00+00:00,303.0,11.32,304.0,12.91,12.17,47.59359,-54.27349
2024-01-10 05:54:00+00:00,309.0,10.8,301.0,14.01,12.17,47.59359,-54.27349
2024-01-10 06:04:00+00:00,320.0,9.7,322.0,10.94,12.17,47.59359,-54.27349
2024-01-10 06:14:00+00:00,305.0,9.58,310.0,11.1,12.09,47.59359,-54.27349
2024-01-10 06:24:00+00:00,311.0,8.76,309.0,10.54,12.09,47.59359,-54.27349
2024-01-10 06:34:00+00:00,312.0,8.78,319.0,11.28,12.09,47.59359,-54.27349
2024-01-10 06:44:00+00:00,313.0,9.08,319.0,10.76,12.09,47.59359,-54.27349
2024-01-10 06:54:00+00:00,316.0,9.91,320.0,11.71,12.09,47.59359,-54.27349
2024-01-10 07:04:00+00:00,315.0,9.73,322.0,12.36,12.09,47.59359,-54.27349
2024-01-10 07:14:00+00:00,315.0,10.47,318.0,11.32,12.09,47.59359,-54.27349
2024-01-10 07:24:00+00:00,314.0,12.11,316.0,14.21,12.09,47.59359,-54.27349
2024-01-10 07:34:00+00:00,322.0,10.99,326.0,14.21,12.09,47.59359,-54.27349
2024-01-10 07:44:00+00:00,312.0,11.2,311.0,12.63,12.09,47.59359,-54.27349
2024-01-10 07:54:00+00:00,316.0,10.47,317.0,11.98,12.09,47.59359,-54.27349
2024-01-10 08:04:00+00:00,320.0,10.23,323.0,13.49,12.09,47.59359,-54.27349
2024-01-10 08:14:00+00:00,323.0,10.57,328.0,14.8,12.09,47.59359,-54.27349
2024-01-10 08:24:00+00:00,336.0,9.32,329.0,11.7,12.09,47.59359,-54.27349
2024-01-10 08:34:00+00:00,338.0,7.46,343.0,9.35,12.09,47.59359,-54.27349
2024-01-10 08:44:00+00:00,334.0,5.8,329.0,6.97,12.09,47.59359,-54.27349
2024-01-10 08:54:00+00:00,349.0,5.06,343.0,6.28,12.09,47.59359,-54.27349
2024-01-10 09:04:00+00:00,0.0,4.76,346.0,5.86,12.09,47.59359,-54.27349
2024-01-10 09:14:00+00:00,345.0,3.53,344.0,5.7,12.01,47.59359,-54.27349
2024-01-10 09:24:00+00:00,347.0,3.68,349.0,4.56,12.01,47.59359,-54.27349
2024-01-10 09:34:00+00:00,14.0,4.25,26.0,5.44,12.01,47.59359,-54.27349
2024-01-10 09:44:00+00:00,349.0,5.01,355.0,6.44,12.01,47.59359,-54.27349
2024-01-10 09:54:00+00:00,342.0,8.15,348.0,10.19,12.01,47.59359,-54.27349
2024-01-10 10:04:00+00:00,344.0,6.38,345.0,7.41,12.01,47.59359,-54.27349
2024-01-10 10:14:00+00:00,352.0,5.52,354.0,6.79,12.01,47.59359,-54.27349
2024-01-10 10:24:00+00:00,344.0,5.62,344.0,6.62,12.01,47.59359,-54.27349
2024-01-10 10:34:00+00:00,356.0,4.82,356.0,5.73,12.01,47.59359,-54.27349
2024-01-10 10:44:00+00:00,343.0,4.44,343.0,5.4,12.01,47.59359,-54.27349
2024-01-10 10:54:00+00:00,5.0,6.02,13.0,7.44,12.01,47.59359,-54.27349
2024-01-10 11:04:00+00:00,2.0,5.92,5.0,7.21,12.01,47.59359,-54.27349
2024-01-10 11:14:00+00:00,357.0,6.26,348.0,7.77,11.93,47.59359,-54.27349
2024-01-10 11:24:00+00:00,354.0,5.61,0.0,6.81,11.93,47.59359,-54.27349
2024-01-10 11:34:00+00:00,1.0,7.07,3.0,8.6,11.93,47.59359,-54.27349
2024-01-10 11:44:00+00:00,353.0,6.72,354.0,8.02,11.93,47.59359,-54.27349
2024-01-10 11:54:00+00:00,351.0,5.59,0.0,7.48,11.93,47.59359,-54.27349
2024-01-10 12:04:00+00:00,335.0,5.91,331.0,6.92,11.93,47.59359,-54.27349
2024-01-10 12:14:01+00:00,324.0,5.13,327.0,6.07,14.0,47.59359,-54.27349
2024-01-10 12:24:01+00:00,330.0,5.21,327.0,6.66,14.0,47.59359,-54.27349
2024-01-10 12:34:01+00:00,331.0,5.13,332.0,5.86,14.0,47.59359,-54.27349
2024-01-10 12:44:01+00:00,327.0,6.37,329.0,7.25,14.0,47.59359,-54.27349
2024-01-10 12:54:01+00:00,336.0,4.78,330.0,5.65,14.0,47.59359,-54.27349
2024-01-10 13:04:01+00:00,349.0,4.47,347.0,5.45,14.0,47.59359,-54.27349
2024-01-10 13:14:00+00:00,345.0,4.87,347.0,6.47,14.48,47.59359,-54.27349
2024-01-10 13:24:00+00:00,3.0,5.64,359.0,6.38,14.48,47.59359,-54.27349
2024-01-10 13:34:00+00:00,358.0,4.81,1.0,5.78,14.48,47.59359,-54.27349
2024-01-10 13:44:00+00:00,0.0,5.3,352.0,6.32,14.48,47.59359,-54.27349
2024-01-10 13:54:00+00:00,345.0,5.61,349.0,6.6,14.48,47.59359,-54.27349
2024-01-10 14:04:00+00:00,346.0,4.11,346.0,4.91,14.48,47.59359,-54.27349
2024-01-10 14:14:00+00:00,356.0,3.41,1.0,4.58,13.84,47.59359,-54.27349
2024-01-10 14:24:00+00:00,355.0,4.46,354.0,6.14,13.84,47.59359,-54.27349
2024-01-10 14:34:00+00:00,14.0,3.36,18.0,4.6,13.84,47.59359,-54.27349
2024-01-10 14:44:00+00:00,23.0,2.94,22.0,3.92,13.84,47.59359,-54.27349
2024-01-10 14:54:00+00:00,23.0,4.32,18.0,5.18,13.84,47.59359,-54.27349
2024-01-10 15:04:00+00:00,33.0,3.92,24.0,4.64,13.84,47.59359,-54.27349
2024-01-10 15:14:00+00:00,71.0,2.92,72.0,3.3,13.68,47.59359,-54.27349
2024-01-10 15:24:00+00:00,73.0,3.33,77.0,4.24,13.68,47.59359,-54.27349
2024-01-10 15:34:00+00:00,47.0,1.67,67.0,3.78,13.68,47.59359,-54.27349
2024-01-10 15:44:00+00:00,83.0,1.89,99.0,3.1,13.68,47.59359,-54.27349
2024-01-10 15:54:00+00:00,73.0,1.42,62.0,2.14,13.68,47.59359,-54.27349
2024-01-10 16:04:00+00:00,52.0,1.19,66.0,1.64,13.68,47.59359,-54.27349
2024-01-10 16:14:00+00:00,67.0,1.59,80.0,2.3,14.24,47.59359,-54.27349
2024-01-10 16:24:00+00:00,345.0,0.77,333.0,1.15,14.24,47.59359,-54.27349
2024-01-10 16:34:00+00:00,46.0,2.17,43.0,2.73,14.24,47.59359,-54.27349
2024-01-10 16:44:00+00:00,38.0,1.68,50.0,2.5,14.24,47.59359,-54.27349
2024-01-10 16:54:00+00:00,57.0,2.21,70.0,3.38,14.24,47.59359,-54.27349
2024-01-10 17:04:00+00:00,34.0,3.71,38.0,4.65,14.24,47.59359,-54.27349
2024-01-10 17:14:00+00:00,62.0,2.8,65.0,3.44,13.68,47.59359,-54.27349
2024-01-10 17:24:00+00:00,50.0,3.43,53.0,4.38,13.68,47.59359,-54.27349
2024-01-10 17:34:00+00:00,72.0,1.79,63.0,2.47,13.68,47.59359,-54.27349
2024-01-10 17:44:00+00:00,79.0,1.71,75.0,2.66,13.68,47.59359,-54.27349
2024-01-10 17:54:00+00:00,41.0,2.82,48.0,3.31,13.68,47.59359,-54.27349
2024-01-10 18:04:00+00:00,62.0,2.71,52.0,3.7,13.68,47.59359,-54.27349
2024-01-10 18:14:00+00:00,76.0,2.62,83.0,5.15,13.68,47.59359,-54.27349
2024-01-10 18:24:00+00:00,111.0,2.3,100.0,4.6,13.68,47.59359,-54.27349
2024-01-10 18:34:00+00:00,61.0,1.81,54.0,2.71,13.68,47.59359,-54.27349
2024-01-10 18:44:00+00:00,140.0,2.9,122.0,6.4,13.68,47.59359,-54.27349
2024-01-10 18:54:00+00:00,117.0,3.47,121.0,6.29,13.68,47.59359,-54.27349
2024-01-10 19:04:00+00:00,127.0,4.64,125.0,6.11,13.68,47.59359,-54.27349
2024-01-10 19:14:00+00:00,114.0,5.55,111.0,6.81,13.44,47.59359,-54.27349
2024-01-10 19:24:00+00:00,100.0,5.03,88.0,6.49,13.44,47.59359,-54.27349
2024-01-10 19:34:00+00:00,85.0,4.56,97.0,6.14,13.44,47.59359,-54.27349
2024-01-10 19:44:00+00:00,105.0,5.61,110.0,6.72,13.44,47.59359,-54.27349
2024-01-10 19:54:00+00:00,121.0,5.09,116.0,7.27,13.44,47.59359,-54.27349
2024-01-10 20:04:00+00:00,116.0,5.65,119.0,7.32,13.44,47.59359,-54.27349
2024-01-10 20:14:00+00:00,107.0,6.49,110.0,6.95,12.73,47.59359,-54.27349
2024-01-10 20:24:00+00:00,122.0,6.43,123.0,8.11,12.73,47.59359,-54.27349
2024-01-10 20:34:00+00:00,136.0,6.47,127.0,8.36,12.73,47.59359,-54.27349
2024-01-10 20:44:00+00:00,128.0,6.39,126.0,8.19,12.73,47.59359,-54.27349
2024-01-10 20:54:00+00:00,130.0,7.33,127.0,8.71,12.73,47.59359,-54.27349
2024-01-10 21:04:00+00:00,135.0,7.33,137.0,9.12,12.73,47.59359,-54.27349
2024-01-10 21:14:00+00:00,138.0,7.82,142.0,8.88,12.41,47.59359,-54.27349
2024-01-10 21:24:00+00:00,134.0,8.01,133.0,9.18,12.41,47.59359,-54.27349
2024-01-10 21:34:00+00:00,140.0,7.84,133.0,8.95,12.41,47.59359,-54.27349
2024-01-10 21:44:00+00:00,142.0,7.37,141.0,8.72,12.41,47.59359,-54.27349
2024-01-10 21:54:00+00:00,137.0,7.96,132.0,9.27,12.41,47.59359,-54.27349
2024-01-10 22:04:00+00:00,137.0,8.02,132.0,9.04,12.41,47.59359,-54.27349
2024-01-10 22:14:00+00:00,147.0,9.09,142.0,10.23,12.33,47.59359,-54.27349
2024-01-10 22:24:00+00:00,150.0,10.12,146.0,11.5,12.33,47.59359,-54.27349
2024-01-10 22:34:00+00:00,143.0,9.96,144.0,11.25,12.33,47.59359,-54.27349
2024-01-10 22:44:00+00:00,143.0,8.33,143.0,10.17,12.33,47.59359,-54.27349
2024-01-10 22:54:00+00:00,148.0,9.54,155.0,11.29,12.33,47.59359,-54.27349
2024-01-10 23:04:00+00:00,147.0,8.9,138.0,10.2,12.33,47.59359,-54.27349
2024-01-10 23:14:00+00:00,146.0,8.61,148.0,10.18,12.25,47.59359,-54.27349
2024-01-10 23:24:00+00:00,147.0,9.15,141.0,10.69,12.25,47.59359,-54.27349
2024-01-10 23:34:00+00:00,145.0,8.75,148.0,10.26,12.25,47.59359,-54.27349
2024-01-10 23:44:00+00:00,149.0,9.86,149.0,11.21,12.25,47.59359,-54.27349
2024-01-10 23:54:00+00:00,145.0,10.08,145.0,11.52,12.25,47.59359,-54.27349
